| time (UTC) | temp C | wind direction | speed KPH | gust KPH | rain 1hr cm | rain 24hr cm | rain mn cm | humidity % | barometer mb |
| 20260906133318 | 20 | 302 | 1.6 | 4.8 | 0.00 | 0.00 | 0.00 | 84 | 1014.7 |
| 20260906132337 | 19 | 19 | 1.6 | 4.8 | 0.00 | 0.00 | 0.00 | 87 | 1014.6 |
| 20260906131319 | 18 | 24 | 3.2 | 4.8 | 0.00 | 0.00 | 0.00 | 91 | 1014.6 |
| 20260906130312 | 18 | 338 | 1.6 | 3.2 | 0.00 | 0.00 | 0.00 | 93 | 1014.7 |
| 20260906125319 | 17 | 149 | 0.0 | 3.2 | 0.00 | 0.00 | 0.00 | 95 | 1014.5 |
| 20260906124312 | 16 | 149 | 1.6 | 3.2 | 0.00 | 0.00 | 0.00 | 96 | 1014.5 |
| 20260906123312 | 16 | 149 | 0.0 | 1.6 | 0.00 | 0.00 | 0.00 | 96 | 1014.4 |
| 20260906122335 | 16 | 149 | 0.0 | 3.2 | 0.00 | 0.00 | 0.00 | 96 | 1014.3 |
| 20260906121336 | 15 | 149 | 0.0 | 1.6 | 0.00 | 0.00 | 0.00 | 96 | 1014.2 |
| 20260906120336 | 15 | 149 | 0.0 | 1.6 | 0.00 | 0.00 | 0.00 | 96 | 1014.0 |
| 20260906115316 | 14 | 149 | 0.0 | 0.0 | 0.00 | 0.00 | 0.00 | 96 | 1013.8 |
| 20260906114333 | 14 | 149 | 0.0 | 1.6 | 0.00 | 0.00 | 0.00 | 95 | 1013.7 |
| 20260906113356 | 13 | 149 | 0.0 | 0.0 | 0.00 | 0.00 | 0.00 | 95 | 1013.5 |
| 20260906112324 | 13 | 149 | 0.0 | 1.6 | 0.00 | 0.00 | 0.00 | 95 | 1013.5 |
| 20260906111313 | 13 | 149 | 0.0 | 3.2 | 0.00 | 0.00 | 0.00 | 95 | 1013.6 |
| 20260906110316 | 13 | 60 | 1.6 | 1.6 | 0.00 | 0.00 | 0.00 | 95 | 1013.5 |
| 20260906105313 | 13 | 38 | 0.0 | 1.6 | 0.00 | 0.00 | 0.00 | 95 | 1013.4 |
| 20260906104311 | 13 | 38 | 0.0 | 1.6 | 0.00 | 0.00 | 0.00 | 95 | 1013.3 |
| 20260906103336 | 13 | 38 | 0.0 | 1.6 | 0.00 | 0.00 | 0.00 | 95 | 1013.1 |
| 20260906102331 | 13 | 38 | 0.0 | 1.6 | 0.00 | 0.00 | 0.00 | 94 | 1013.1 |
| 20260906101343 | 14 | 38 | 1.6 | 1.6 | 0.00 | 0.00 | 0.00 | 94 | 1013.0 |
| 20260906100311 | 14 | 38 | 0.0 | 1.6 | 0.00 | 0.00 | 0.00 | 94 | 1012.9 |
| 20260906095336 | 14 | 38 | 1.6 | 4.8 | 0.00 | 0.00 | 0.00 | 94 | 1012.8 |
| 20260906094334 | 14 | 33 | 1.6 | 3.2 | 0.00 | 0.00 | 0.00 | 94 | 1012.7 |
| 20260906093317 | 14 | 96 | 0.0 | 1.6 | 0.00 | 0.00 | 0.00 | 94 | 1012.6 |
| 20260906092323 | 14 | 96 | 0.0 | 1.6 | 0.00 | 0.00 | 0.00 | 94 | 1012.5 |
| 20260906091351 | 14 | 96 | 0.0 | 1.6 | 0.00 | 0.00 | 0.00 | 94 | 1012.5 |
| 20260906090333 | 14 | 96 | 0.0 | 0.0 | 0.00 | 0.00 | 0.00 | 94 | 1012.3 |
| 20260906085339 | 14 | 96 | 0.0 | 0.0 | 0.00 | 0.00 | 0.00 | 94 | 1012.3 |
| 20260906084320 | 14 | 96 | 0.0 | 0.0 | 0.00 | 0.00 | 0.00 | 94 | 1012.3 |
| 20260906083333 | 15 | 96 | 0.0 | 0.0 | 0.00 | 0.00 | 0.00 | 93 | 1012.2 |
| 20260906082341 | 15 | 96 | 0.0 | 1.6 | 0.00 | 0.00 | 0.00 | 93 | 1012.2 |
| 20260906081341 | 15 | 96 | 0.0 | 1.6 | 0.00 | 0.00 | 0.00 | 93 | 1012.3 |
| 20260906080316 | 15 | 96 | 0.0 | 3.2 | 0.00 | 0.00 | 0.00 | 93 | 1012.3 |
| 20260906075339 | 15 | 96 | 0.0 | 0.0 | 0.00 | 0.00 | 0.00 | 93 | 1012.4 |
| 20260906074319 | 15 | 96 | 0.0 | 0.0 | 0.00 | 0.00 | 0.00 | 93 | 1012.2 |
| 20260906073340 | 15 | 96 | 0.0 | 0.0 | 0.00 | 0.00 | 0.00 | 93 | 1012.0 |
| 20260906072340 | 15 | 96 | 0.0 | 0.0 | 0.00 | 0.00 | 0.00 | 92 | 1012.0 |
| 20260906071319 | 15 | 96 | 1.6 | 3.2 | 0.00 | 0.00 | 0.00 | 92 | 1012.0 |
| 20260906070315 | 15 | 96 | 0.0 | 1.6 | 0.00 | 0.00 | 0.00 | 92 | 1011.9 |
| 20260906065401 | 15 | 96 | 0.0 | 1.6 | 0.00 | 0.00 | 0.00 | 92 | 1012.0 |
| 20260906064316 | 15 | 96 | 0.0 | 3.2 | 0.00 | 0.00 | 0.00 | 92 | 1012.0 |
| 20260906063319 | 16 | 96 | 1.6 | 3.2 | 0.00 | 0.00 | 0.00 | 91 | 1011.8 |
| 20260906062322 | 16 | 96 | 0.0 | 1.6 | 0.00 | 0.00 | 0.00 | 91 | 1011.9 |
| 20260906061315 | 16 | 96 | 1.6 | 3.2 | 0.00 | 0.00 | 0.00 | 91 | 1011.9 |
| 20260906060318 | 16 | 96 | 1.6 | 3.2 | 0.00 | 0.00 | 0.00 | 90 | 1012.0 |
| 20260906055333 | 16 | 96 | 3.2 | 3.2 | 0.00 | 0.00 | 0.00 | 90 | 1012.1 |
| 20260906054316 | 16 | 42 | 0.0 | 3.2 | 0.00 | 0.00 | 0.00 | 90 | 1012.1 |
| 20260906053317 | 17 | 42 | 1.6 | 3.2 | 0.00 | 0.00 | 0.00 | 89 | 1012.0 |
| 20260906052341 | 17 | 87 | 1.6 | 3.2 | 0.00 | 0.00 | 0.00 | 89 | 1012.0 |
| 20260906051337 | 17 | 87 | 1.6 | 4.8 | 0.00 | 0.00 | 0.00 | 89 | 1012.0 |
| 20260906050318 | 17 | 17 | 1.6 | 4.8 | 0.00 | 0.00 | 0.00 | 88 | 1012.0 |
| 20260906045352 | 17 | 306 | 1.6 | 3.2 | 0.00 | 0.00 | 0.00 | 88 | 1012.1 |
| 20260906044339 | 17 | 306 | 0.0 | 1.6 | 0.00 | 0.00 | 0.00 | 88 | 1012.2 |
| 20260906043315 | 17 | 306 | 0.0 | 3.2 | 0.00 | 0.00 | 0.00 | 87 | 1012.3 |
| 20260906042341 | 17 | 306 | 0.0 | 3.2 | 0.00 | 0.00 | 0.00 | 87 | 1012.3 |
| 20260906041316 | 18 | 306 | 1.6 | 3.2 | 0.00 | 0.00 | 0.00 | 87 | 1012.2 |
| 20260906040338 | 18 | 306 | 1.6 | 3.2 | 0.00 | 0.00 | 0.00 | 87 | 1012.1 |
| 20260906035355 | 18 | 306 | 0.0 | 3.2 | 0.00 | 0.00 | 0.00 | 86 | 1012.2 |
| 20260906034342 | 18 | 306 | 0.0 | 3.2 | 0.00 | 0.00 | 0.00 | 85 | 1012.3 |
| 20260906033341 | 18 | 306 | 0.0 | 1.6 | 0.00 | 0.00 | 0.00 | 85 | 1012.3 |
| 20260906032340 | 18 | 306 | 0.0 | 3.2 | 0.00 | 0.00 | 0.00 | 83 | 1012.2 |
| 20260906031338 | 19 | 306 | 0.0 | 4.8 | 0.00 | 0.00 | 0.00 | 82 | 1012.1 |
| 20260906030322 | 20 | 117 | 1.6 | 4.8 | 0.00 | 0.00 | 0.00 | 81 | 1012.1 |
| 20260906025317 | 20 | 28 | 0.0 | 3.2 | 0.00 | 0.00 | 0.00 | 79 | 1012.0 |
| 20260906024339 | 20 | 28 | 1.6 | 4.8 | 0.00 | 0.00 | 0.00 | 79 | 1011.9 |
| 20260906023341 | 20 | 28 | 3.2 | 4.8 | 0.00 | 0.00 | 0.00 | 77 | 1011.9 |
| 20260906022335 | 21 | 70 | 1.6 | 4.8 | 0.00 | 0.00 | 0.00 | 76 | 1011.8 |
| 20260906021336 | 21 | 24 | 1.6 | 3.2 | 0.00 | 0.00 | 0.00 | 74 | 1011.7 |
| 20260906020318 | 22 | 44 | 1.6 | 9.7 | 0.00 | 0.00 | 0.00 | 71 | 1011.7 |
| 20260906015354 | 22 | 112 | 6.4 | 16.1 | 0.00 | 0.00 | 0.00 | 71 | 1011.6 |
| 20260906014316 | 22 | 136 | 4.8 | 11.3 | 0.00 | 0.00 | 0.00 | 72 | 1011.5 |
| 20260906013316 | 22 | 123 | 3.2 | 11.3 | 0.00 | 0.00 | 0.00 | 72 | 1011.4 |
| 20260906012339 | 22 | 98 | 3.2 | 11.3 | 0.00 | 0.00 | 0.00 | 73 | 1011.3 |
| 20260906011332 | 22 | 136 | 4.8 | 14.5 | 0.00 | 0.00 | 0.00 | 74 | 1011.3 |
| 20260906010315 | 22 | 120 | 4.8 | 11.3 | 0.00 | 0.00 | 0.00 | 75 | 1011.2 |
| 20260906005330 | 22 | 128 | 3.2 | 9.7 | 0.00 | 0.00 | 0.00 | 76 | 1011.0 |
| 20260906004400 | 22 | 130 | 3.2 | 6.4 | 0.00 | 0.00 | 0.00 | 77 | 1011.0 |
| 20260906003337 | 21 | 103 | 3.2 | 6.4 | 0.00 | 0.00 | 0.00 | 78 | 1011.0 |
| 20260906002331 | 22 | 22 | 1.6 | 4.8 | 0.00 | 0.00 | 0.00 | 78 | 1010.9 |
| 20260906001400 | 22 | 49 | 1.6 | 4.8 | 0.00 | 0.00 | 0.00 | 76 | 1010.7 |
| 20260906000340 | 22 | 122 | 1.6 | 4.8 | 0.00 | 0.00 | 0.00 | 74 | 1010.6 |
| 20260905235319 | 22 | 96 | 1.6 | 6.4 | 0.00 | 0.00 | 0.00 | 74 | 1010.5 |
| 20260905234331 | 23 | 85 | 1.6 | 4.8 | 0.00 | 0.00 | 0.00 | 73 | 1010.4 |
| 20260905233335 | 23 | 113 | 1.6 | 4.8 | 0.00 | 0.00 | 0.00 | 73 | 1010.5 |
| 20260905232337 | 23 | 93 | 1.6 | 4.8 | 0.00 | 0.00 | 0.00 | 73 | 1010.4 |
| 20260905231315 | 25 | 89 | 1.6 | 3.2 | 0.00 | 0.00 | 0.00 | 71 | 1010.4 |
| 20260905230337 | 25 | 351 | 0.0 | 3.2 | 0.00 | 0.00 | 0.00 | 67 | 1010.3 |
| 20260905225319 | 25 | 26 | 3.2 | 4.8 | 0.00 | 0.00 | 0.00 | 66 | 1010.1 |
| 20260905224331 | 25 | 15 | 1.6 | 3.2 | 0.00 | 0.00 | 0.00 | 69 | 1010.0 |
| 20260905223338 | 25 | 46 | 0.0 | 4.8 | 0.00 | 0.00 | 0.00 | 69 | 1010.0 |
| 20260905222338 | 25 | 22 | 4.8 | 12.9 | 0.00 | 0.00 | 0.00 | 66 | 1009.9 |
| 20260905221317 | 26 | 16 | 4.8 | 12.9 | 0.00 | 0.00 | 0.00 | 63 | 1009.7 |
| 20260905220339 | 27 | 351 | 6.4 | 16.1 | 0.00 | 0.00 | 0.00 | 63 | 1009.7 |
| 20260905215313 | 27 | 333 | 6.4 | 16.1 | 0.00 | 0.00 | 0.00 | 63 | 1009.5 |
| 20260905214318 | 27 | 360 | 8.0 | 19.3 | 0.00 | 0.00 | 0.00 | 63 | 1009.5 |
| 20260905213326 | 27 | 9 | 6.4 | 12.9 | 0.00 | 0.00 | 0.00 | 63 | 1009.5 |
| 20260905212335 | 27 | 329 | 6.4 | 16.1 | 0.00 | 0.00 | 0.00 | 62 | 1009.4 |
| 20260905211318 | 27 | 333 | 4.8 | 17.7 | 0.00 | 0.00 | 0.00 | 64 | 1009.3 |
| 20260905210320 | 27 | 360 | 6.4 | 12.9 | 0.00 | 0.00 | 0.00 | 65 | 1009.3 |
| 20260905205331 | 27 | 351 | 6.4 | 12.9 | 0.00 | 0.00 | 0.00 | 63 | 1009.4 |
| 20260905204317 | 27 | 325 | 8.0 | 14.5 | 0.00 | 0.00 | 0.00 | 64 | 1009.4 |
| 20260905203318 | 27 | 298 | 3.2 | 12.9 | 0.00 | 0.00 | 0.00 | 62 | 1009.5 |
| 20260905202317 | 27 | 346 | 8.0 | 12.9 | 0.00 | 0.00 | 0.00 | 65 | 1009.6 |
| 20260905201336 | 27 | 342 | 4.8 | 12.9 | 0.00 | 0.00 | 0.00 | 65 | 1009.6 |
| 20260905200337 | 27 | 30 | 4.8 | 16.1 | 0.00 | 0.00 | 0.00 | 62 | 1009.7 |
| 20260905195337 | 27 | 10 | 6.4 | 9.7 | 0.00 | 0.00 | 0.00 | 64 | 1009.6 |
| 20260905194314 | 26 | 328 | 4.8 | 9.7 | 0.00 | 0.00 | 0.00 | 65 | 1009.7 |
| 20260905193314 | 27 | 317 | 4.8 | 11.3 | 0.00 | 0.00 | 0.00 | 64 | 1009.9 |
| 20260905192313 | 27 | 339 | 6.4 | 12.9 | 0.00 | 0.00 | 0.00 | 62 | 1010.0 |
| 20260905191337 | 27 | 24 | 6.4 | 16.1 | 0.00 | 0.00 | 0.00 | 60 | 1010.1 |
| 20260905190340 | 28 | 329 | 3.2 | 14.5 | 0.00 | 0.00 | 0.00 | 64 | 1010.1 |
| 20260905185318 | 28 | 44 | 3.2 | 22.5 | 0.00 | 0.00 | 0.00 | 67 | 1010.0 |
| 20260905184358 | 28 | 343 | 8.0 | 17.7 | 0.00 | 0.00 | 0.00 | 64 | 1010.1 |
| 20260905183315 | 28 | 350 | 8.0 | 12.9 | 0.00 | 0.00 | 0.00 | 64 | 1010.3 |
| 20260905182401 | 27 | 338 | 3.2 | 16.1 | 0.00 | 0.00 | 0.00 | 63 | 1010.3 |
| 20260905181332 | 27 | 14 | 9.7 | 16.1 | 0.00 | 0.00 | 0.00 | 68 | 1010.5 |
| 20260905180334 | 27 | 313 | 3.2 | 14.5 | 0.00 | 0.00 | 0.00 | 70 | 1010.5 |
| 20260905175316 | 27 | 25 | 3.2 | 8.0 | 0.00 | 0.00 | 0.00 | 71 | 1010.5 |
| 20260905174332 | 27 | 82 | 1.6 | 12.9 | 0.00 | 0.00 | 0.00 | 69 | 1010.7 |
| 20260905173313 | 26 | 323 | 6.4 | 9.7 | 0.00 | 0.00 | 0.00 | 73 | 1010.8 |
| 20260905172331 | 26 | 337 | 4.8 | 12.9 | 0.00 | 0.00 | 0.00 | 74 | 1010.9 |
| 20260905171332 | 26 | 349 | 4.8 | 12.9 | 0.00 | 0.00 | 0.00 | 74 | 1011.0 |
| 20260905170336 | 26 | 329 | 1.6 | 9.7 | 0.00 | 0.00 | 0.00 | 71 | 1011.0 |
| 20260905165315 | 26 | 5 | 3.2 | 16.1 | 0.00 | 0.00 | 0.00 | 73 | 1011.1 |
| 20260905164318 | 26 | 344 | 4.8 | 9.7 | 0.00 | 0.00 | 0.00 | 74 | 1011.2 |
| 20260905163400 | 26 | 350 | 4.8 | 9.7 | 0.00 | 0.00 | 0.00 | 75 | 1011.2 |
| 20260905162331 | 25 | 15 | 6.4 | 9.7 | 0.00 | 0.00 | 0.00 | 74 | 1011.3 |
| 20260905161314 | 25 | 5 | 6.4 | 14.5 | 0.00 | 0.00 | 0.00 | 76 | 1011.3 |
| 20260905160357 | 26 | 309 | 4.8 | 12.9 | 0.00 | 0.00 | 0.00 | 75 | 1011.5 |
| 20260905155338 | 26 | 5 | 4.8 | 12.9 | 0.00 | 0.00 | 0.00 | 76 | 1011.5 |
| 20260905154338 | 25 | 294 | 3.2 | 8.0 | 0.00 | 0.00 | 0.00 | 75 | 1011.6 |
| 20260905153334 | 25 | 326 | 1.6 | 6.4 | 0.00 | 0.00 | 0.00 | 75 | 1011.7 |
| 20260905152312 | 25 | 349 | 3.2 | 6.4 | 0.00 | 0.00 | 0.00 | 79 | 1011.8 |
| 20260905151339 | 25 | 5 | 3.2 | 6.4 | 0.00 | 0.00 | 0.00 | 79 | 1011.9 |
| 20260905150315 | 25 | 347 | 4.8 | 8.0 | 0.00 | 0.00 | 0.00 | 81 | 1012.0 |
| 20260905145319 | 24 | 323 | 3.2 | 8.0 | 0.00 | 0.00 | 0.00 | 82 | 1012.1 |
| 20260905144334 | 24 | 345 | 3.2 | 6.4 | 0.00 | 0.00 | 0.00 | 85 | 1011.9 |
| 20260905143314 | 24 | 351 | 0.0 | 4.8 | 0.00 | 0.00 | 0.00 | 84 | 1011.8 |
| 20260905142319 | 24 | 336 | 0.0 | 4.8 | 0.00 | 0.00 | 0.00 | 86 | 1011.8 |
| 20260905141326 | 23 | 36 | 1.6 | 4.8 | 0.00 | 0.00 | 0.00 | 87 | 1011.7 |
| 20260905140321 | 23 | 313 | 1.6 | 4.8 | 0.00 | 0.00 | 0.00 | 87 | 1011.6 |
| 20260905135332 | 23 | 309 | 4.8 | 6.4 | 0.00 | 0.00 | 0.00 | 88 | 1011.4 |
| 20260905134313 | 23 | 328 | 3.2 | 6.4 | 0.00 | 0.00 | 0.00 | 89 | 1011.1 |